Location: Most
(50.5133°N, 13.6207°E)
Time: 18:35:13
(UTC+02:00)

ISS - Pass Details

Date: 17 May 2019
Orbit: 407 x 410 km, 51.6° (Epoch: 23 May)

Event Time Altitude Azimuth Distance (km) Brightness Sun altitude
Exits shadow 02:12:13 13° 280° (W) 1,332 -1.3 -18.6°
Maximum altitude 02:15:10 72° 4° (N) 435 -3.6 -18.4°
Drops below altitude 10° 02:18:28 10° 90° (E) 1,477 -0.8 -18.3°
Sets 02:20:34 0° 93° (E) 2,338 0.3 -18.1°
